Location: Hilton Head Island
(32.2163°N, 80.7526°W)
Time: 18:05:16
(UTC-05:00)

Vanguard 2 Rocket - All Passes

Search period start: 16 February 2026 00:00
Search period end: 26 February 2026 00:00
Orbit: 553 x 3286 km, 32.9° (Epoch: 16 February)

Date Brightness Start Highest point End Pass type
(mag) Time Alt. Az. Time Alt. Az. Time Alt. Az.
16 Feb - 10:20:31 10° SSW 10:37:29 36° SE 10:51:55 10° E daylight
16 Feb - 12:34:49 10° SW 12:54:17 67° SSE 13:07:20 10° ENE daylight
16 Feb - 14:53:34 10° W 15:10:43 89° N 15:20:24 10° E daylight
16 Feb - 17:13:06 10° W 17:25:40 83° SSW 17:32:30 10° ESE daylight
16 Feb - 19:31:14 10° W 19:38:11 30° SW 19:42:47 10° SSE visible
17 Feb - 09:15:59 10° S 09:30:22 26° SE 09:43:58 10° E daylight
17 Feb - 11:27:38 10° SW 11:46:58 56° SSE 12:01:38 10° E daylight
17 Feb - 13:44:57 10° WSW 14:03:56 85° SSE 14:15:30 10° E daylight
17 Feb - 16:04:44 10° W 16:19:52 89° N 16:28:07 10° E daylight
17 Feb - 18:23:33 10° W 18:33:36 51° SSW 18:39:24 10° SE visible
18 Feb - 08:13:37 10° SSE 08:23:28 16° SE 08:33:28 10° ESE daylight
18 Feb - 10:21:22 10° SSW 10:39:33 45° SE 10:55:15 10° E daylight
18 Feb - 12:36:45 10° WSW 12:56:43 77° SSE 13:10:16 10° ENE daylight
18 Feb - 14:56:00 10° W 15:13:29 87° N 15:23:27 10° E daylight
18 Feb - 17:15:34 10° WNW 17:28:27 72° SSW 17:35:29 10° ESE daylight
18 Feb - 19:34:28 10° W 19:40:31 21° SW 19:44:49 10° S visible
19 Feb - 09:16:13 10° SSW 09:32:19 34° SE 09:47:51 10° E daylight
19 Feb - 11:29:17 10° SW 11:49:12 66° SSE 12:04:34 10° ENE daylight
19 Feb - 13:47:16 10° W 14:06:34 90° N 14:18:28 10° E daylight
19 Feb - 16:07:10 10° W 16:22:40 86° SSW 16:31:10 10° ESE daylight
19 Feb - 18:26:13 10° W 18:36:03 40° SW 18:41:58 10° SSE visible
20 Feb - 08:12:31 10° S 08:25:23 23° SE 08:38:51 10° E daylight
20 Feb - 10:22:42 10° SW 10:41:35 55° SSE 10:58:16 10° ENE daylight
20 Feb - 12:38:54 10° WSW 12:59:10 84° SSE 13:13:09 10° E daylight
20 Feb - 14:58:26 10° W 15:16:15 88° N 15:26:30 10° E daylight
20 Feb - 17:18:01 10° WNW 17:31:04 60° SSW 17:38:18 10° SE daylight
20 Feb - 19:38:21 10° W 19:42:41 15° SW 19:46:07 10° SSW visible
21 Feb - 07:11:53 10° SSE 07:18:50 13° SE 07:26:13 10° ESE daylight
21 Feb - 09:17:08 10° SSW 09:34:10 43° SE 09:51:10 10° E daylight
21 Feb - 11:31:14 10° WSW 11:51:26 75° SSE 12:07:23 10° ENE daylight
21 Feb - 13:49:41 10° W 14:09:13 87° N 14:21:28 10° E daylight
21 Feb - 16:09:33 10° WNW 16:25:21 77° SSW 16:34:07 10° ESE daylight
21 Feb - 18:29:04 10° W 18:38:19 30° SW 18:44:13 10° SSE visible
22 Feb - 08:12:44 10° S 08:27:09 31° SE 08:42:53 10° E daylight
22 Feb - 10:24:25 10° SW 10:43:38 64° SSE 11:01:05 10° ENE daylight
22 Feb - 12:41:14 10° WSW 13:01:39 89° S 13:16:03 10° E daylight
22 Feb - 15:00:51 10° W 15:18:58 88° S 15:29:30 10° ESE daylight
22 Feb - 17:20:30 10° WNW 17:33:27 49° SW 17:40:55 10° SE daylight
23 Feb - 07:10:01 10° S 07:20:37 20° SE 07:32:35 10° E daylight
23 Feb - 09:18:32 10° SW 09:36:01 52° SE 09:54:07 10° ENE daylight
23 Feb - 11:33:26 10° WSW 11:53:45 82° SSE 12:10:11 10° E daylight
23 Feb - 13:52:07 10° W 14:11:52 88° N 14:24:27 10° E daylight
23 Feb - 16:11:54 10° WNW 16:27:53 68° SSW 16:36:56 10° SE daylight
23 Feb - 18:32:16 10° W 18:40:23 22° SW 18:46:00 10° S visible
24 Feb - 08:13:42 10° SSW 08:28:51 39° SE 08:46:12 10° E daylight
24 Feb - 10:26:25 10° WSW 10:45:43 73° SSE 11:03:49 10° ENE daylight
24 Feb - 12:43:41 10° W 13:04:12 88° N 13:18:56 10° E daylight
24 Feb - 15:03:13 10° W 15:21:33 81° SSW 15:32:24 10° ESE daylight
24 Feb - 17:23:05 10° W 17:35:38 39° SW 17:43:15 10° SSE daylight
25 Feb - 07:10:04 10° S 07:22:17 27° SE 07:36:56 10° E daylight
25 Feb - 09:20:19 10° SW 09:37:54 61° SSE 09:56:50 10° ENE daylight
25 Feb - 11:35:49 10° WSW 11:56:07 88° SSE 12:12:58 10° E daylight
25 Feb - 13:54:34 10° W 14:14:28 89° SSW 14:27:22 10° E daylight
25 Feb - 16:14:15 10° WNW 16:30:13 57° SSW 16:39:33 10° SE daylight
25 Feb - 18:36:12 10° W 18:42:18 16° SW 18:47:02 10° SSW visible
